TimePDT,TemperatureF,Dew PointF,Humidity,Sea Level PressureIn,VisibilityMPH,Wind Direction,Wind SpeedMPH,Gust SpeedMPH,PrecipitationIn,Events,Conditions,WindDirDegrees,DateUTC
12:55 AM,75.0,37.9,26,29.88,10.0,Calm,Calm,-,N/A,,Clear,0,2013-07-15 07:55:00
1:55 AM,71.1,39.0,31,29.88,10.0,South,4.6,-,N/A,,Clear,190,2013-07-15 08:55:00
2:55 AM,69.1,39.0,33,29.88,10.0,Calm,Calm,-,N/A,,Clear,0,2013-07-15 09:55:00
3:55 AM,66.9,39.0,36,29.88,10.0,Calm,Calm,-,N/A,,Clear,0,2013-07-15 10:55:00
4:55 AM,66.0,37.9,36,29.87,10.0,West,3.5,-,N/A,,Clear,260,2013-07-15 11:55:00
5:55 AM,64.9,37.9,37,29.88,10.0,Variable,3.5,-,N/A,,Scattered Clouds,0,2013-07-15 12:55:00
6:55 AM,66.0,39.0,37,29.89,10.0,SW,3.5,-,N/A,,Scattered Clouds,220,2013-07-15 13:55:00
7:55 AM,69.1,39.0,33,29.89,10.0,Calm,Calm,-,N/A,,Scattered Clouds,0,2013-07-15 14:55:00
8:55 AM,73.0,39.0,29,29.87,10.0,Calm,Calm,-,N/A,,Scattered Clouds,0,2013-07-15 15:55:00
9:55 AM,80.1,36.0,20,29.85,10.0,NW,3.5,-,N/A,,Partly Cloudy,310,2013-07-15 16:55:00
10:55 AM,82.9,36.0,19,29.83,10.0,Calm,Calm,-,N/A,,Partly Cloudy,0,2013-07-15 17:55:00
11:55 AM,86.0,33.1,15,29.80,10.0,Calm,Calm,-,N/A,,Scattered Clouds,0,2013-07-15 18:55:00
12:55 PM,89.1,30.0,12,29.78,10.0,Variable,5.8,-,N/A,,Scattered Clouds,0,2013-07-15 19:55:00
1:55 PM,90.0,33.1,13,29.75,10.0,North,3.5,-,N/A,,Scattered Clouds,350,2013-07-15 20:55:00
2:55 PM,93.0,33.1,12,29.72,10.0,Variable,6.9,-,N/A,,Scattered Clouds,0,2013-07-15 21:55:00
3:55 PM,95.0,35.1,12,29.70,10.0,West,10.4,-,N/A,,Scattered Clouds,270,2013-07-15 22:55:00
4:55 PM,93.9,39.0,15,29.68,10.0,West,11.5,-,N/A,,Scattered Clouds,270,2013-07-15 23:55:00
5:55 PM,93.0,41.0,16,29.68,10.0,NW,12.7,-,N/A,,Scattered Clouds,310,2013-07-16 00:55:00
6:55 PM,89.1,42.1,19,29.68,10.0,West,19.6,24.2,N/A,,Partly Cloudy,270,2013-07-16 01:55:00
7:55 PM,84.9,41.0,21,29.70,10.0,WNW,17.3,25.3,N/A,,Partly Cloudy,300,2013-07-16 02:55:00
8:55 PM,81.0,39.9,23,29.71,10.0,WNW,23.0,29.9,N/A,,Partly Cloudy,300,2013-07-16 03:55:00
9:55 PM,80.1,39.9,24,29.73,10.0,WNW,18.4,27.6,N/A,,Partly Cloudy,290,2013-07-16 04:55:00
10:55 PM,78.1,39.9,25,29.74,10.0,WNW,12.7,-,N/A,,Partly Cloudy,300,2013-07-16 05:55:00
11:55 PM,77.0,39.9,26,29.75,10.0,North,6.9,-,N/A,,Scattered Clouds,350,2013-07-16 06:55:00